Back to catalog

ONEWEB-0419

AliveCommunicationsPO
NORAD 50494·PAYLOAD·🇬🇧 United Kingdom

Launched Dec 27, 2021 from Baikonur Cosmodrome

Loading…

Next Passes (next 24 hours)

TLE

FreshSource: CelesTrak SupGP

Epoch: Sep 14, 2026, 11:11 UTC

1 50494C 21132AB  26257.46611526  .00000670  00000+0  17418-2 0  2576
2 50494  87.9175 317.7282 0001764 104.8009 334.0635 13.17086386    19

Track ONEWEB-0419 in real time with AllMySat

Download on the App Store